Time,TemperatureF,DewpointF,PressureIn,WindDirection,WindDirectionDegrees,WindSpeedMPH,WindSpeedGustMPH,Humidity,HourlyPrecipIn,Conditions,Clouds,dailyrainin,SoftwareType,DateUTC
2013-04-29 18:32:00,87.1,46.6,28.85,NNE,22,0.0,21.7,25,0.00,,,0.00,open2300-1.11,2013-04-29 15:32:00,
2013-04-29 18:37:00,87.1,46.6,28.85,NE,45,0.0,0.0,25,0.00,,,0.00,open2300-1.11,2013-04-29 15:37:00,
2013-04-29 18:42:00,87.1,47.7,28.85,NE,45,0.0,0.0,26,0.00,,,0.00,open2300-1.11,2013-04-29 15:42:00,
2013-04-29 18:47:00,87.1,46.6,28.85,ENE,67,0.0,0.0,25,0.00,,,0.00,open2300-1.11,2013-04-29 15:47:00,
2013-04-29 18:52:00,86.9,46.4,28.85,NE,45,0.0,0.0,25,0.00,,,0.00,open2300-1.11,2013-04-29 15:52:00,
2013-04-29 19:02:00,86.2,45.8,28.85,NNE,22,0.0,0.0,25,0.00,,,0.00,open2300-1.11,2013-04-29 16:02:00,
2013-04-29 19:07:00,85.8,43.4,28.85,NE,45,0.0,0.0,23,0.00,,,0.00,open2300-1.11,2013-04-29 16:07:00,
2013-04-29 19:18:00,85.1,42.8,28.85,NE,45,0.0,0.0,23,0.00,,,0.00,open2300-1.11,2013-04-29 16:18:00,
2013-04-29 19:27:00,84.0,44.0,28.85,NE,45,0.0,0.0,25,0.00,,,0.00,open2300-1.11,2013-04-29 16:27:00,
2013-04-29 19:32:00,83.3,43.4,28.85,NE,45,0.0,0.0,25,0.00,,,0.00,open2300-1.11,2013-04-29 16:32:00,
2013-04-29 19:42:00,82.2,41.4,28.85,NE,45,0.0,0.0,24,0.00,,,0.00,open2300-1.11,2013-04-29 16:42:00,
2013-04-29 19:47:00,81.5,40.9,28.85,NE,45,0.0,0.0,24,0.00,,,0.00,open2300-1.11,2013-04-29 16:47:00,
2013-04-29 19:57:00,80.4,40.0,28.85,NE,45,0.0,0.0,24,0.00,,,0.00,open2300-1.11,2013-04-29 16:57:00,
2013-04-29 20:07:00,79.9,41.6,28.85,NE,45,0.0,0.0,26,0.00,,,0.00,open2300-1.11,2013-04-29 17:07:00,
2013-04-29 20:12:00,79.5,41.2,28.85,NE,45,0.0,0.0,26,0.00,,,0.00,open2300-1.11,2013-04-29 17:12:00,
2013-04-29 20:17:00,79.3,41.1,28.85,NE,45,0.0,0.0,26,0.00,,,0.00,open2300-1.11,2013-04-29 17:17:00,
2013-04-29 20:22:00,79.0,41.8,28.85,NE,45,0.0,0.0,27,0.00,,,0.00,open2300-1.11,2013-04-29 17:22:00,
2013-04-29 20:32:00,78.4,45.2,28.85,NE,45,0.0,0.0,31,0.00,,,0.00,open2300-1.11,2013-04-29 17:32:00,
2013-04-29 20:42:00,77.9,45.6,28.86,NE,45,0.0,0.0,32,0.00,,,0.00,open2300-1.11,2013-04-29 17:42:00,
2013-04-29 20:47:00,77.5,46.8,28.86,NE,45,0.0,0.0,34,0.00,,,0.00,open2300-1.11,2013-04-29 17:47:00,
2013-04-29 20:57:00,76.8,47.0,28.86,NE,45,0.0,0.0,35,0.00,,,0.00,open2300-1.11,2013-04-29 17:57:00,
2013-04-29 21:02:00,76.8,47.0,28.86,NE,45,0.0,0.0,35,0.00,,,0.00,open2300-1.11,2013-04-29 18:02:00,
2013-04-29 21:12:00,76.6,46.8,28.87,NE,45,0.0,0.0,35,0.00,,,0.00,open2300-1.11,2013-04-29 18:12:00,
2013-04-29 21:22:00,76.3,46.5,28.87,NE,45,0.0,0.0,35,0.00,,,0.00,open2300-1.11,2013-04-29 18:22:00,
2013-04-29 21:27:00,75.9,46.2,28.87,NE,45,0.0,0.0,35,0.00,,,0.00,open2300-1.11,2013-04-29 18:27:00,
2013-04-29 21:32:00,75.9,46.2,28.87,NE,45,0.0,0.0,35,0.00,,,0.00,open2300-1.11,2013-04-29 18:32:00,
2013-04-29 21:37:00,75.7,46.7,28.88,NE,45,0.0,0.0,36,0.00,,,0.00,open2300-1.11,2013-04-29 18:37:00,
2013-04-29 21:47:00,75.4,47.2,28.87,NE,45,0.0,0.0,37,0.00,,,0.00,open2300-1.11,2013-04-29 18:47:00,
2013-04-29 21:57:00,75.0,46.8,28.88,NE,45,0.0,0.0,37,0.00,,,0.00,open2300-1.11,2013-04-29 18:57:00,
2013-04-29 22:02:00,74.8,47.4,28.88,NE,45,0.0,0.0,38,0.00,,,0.00,open2300-1.11,2013-04-29 19:02:00,
2013-04-29 22:07:00,74.8,47.4,28.88,NE,45,0.0,0.0,38,0.00,,,0.00,open2300-1.11,2013-04-29 19:07:00,
2013-04-29 22:12:00,74.5,47.1,28.88,NE,45,0.0,0.0,38,0.00,,,0.00,open2300-1.11,2013-04-29 19:12:00,
2013-04-29 22:17:00,74.3,47.7,28.88,NE,45,0.0,0.0,39,0.00,,,0.00,open2300-1.11,2013-04-29 19:17:00,
2013-04-29 22:22:00,74.1,47.5,28.88,NE,45,0.0,0.0,39,0.00,,,0.00,open2300-1.11,2013-04-29 19:22:00,
2013-04-29 22:32:00,73.8,47.2,28.88,NE,45,0.0,0.0,39,0.00,,,0.00,open2300-1.11,2013-04-29 19:32:00,
2013-04-29 22:42:00,73.4,46.9,28.88,NE,45,0.0,0.0,39,0.00,,,0.00,open2300-1.11,2013-04-29 19:42:00,
2013-04-29 22:47:00,73.2,47.5,28.88,NE,45,0.0,0.0,40,0.00,,,0.00,open2300-1.11,2013-04-29 19:47:00,
2013-04-29 22:52:00,73.2,47.5,28.88,NE,45,0.0,0.0,40,0.00,,,0.00,open2300-1.11,2013-04-29 19:52:00,
2013-04-29 23:02:00,72.7,47.6,28.88,NE,45,0.0,0.0,41,0.00,,,0.00,open2300-1.11,2013-04-29 20:02:00,
2013-04-29 23:07:00,72.7,47.6,28.88,NE,45,0.0,0.0,41,0.00,,,0.00,open2300-1.11,2013-04-29 20:07:00,
2013-04-29 23:17:00,72.5,48.0,28.88,NE,45,0.0,0.0,42,0.00,,,0.00,open2300-1.11,2013-04-29 20:17:00,
2013-04-29 23:22:00,72.3,47.9,28.88,NE,45,0.0,0.0,42,0.00,,,0.00,open2300-1.11,2013-04-29 20:22:00,
2013-04-29 23:32:00,72.1,47.7,28.88,NE,45,0.0,0.0,42,0.00,,,0.00,open2300-1.11,2013-04-29 20:32:00,
2013-04-29 23:37:00,72.1,47.7,28.88,NE,45,0.0,0.0,42,0.00,,,0.00,open2300-1.11,2013-04-29 20:37:00,
2013-04-29 23:47:00,71.8,48.0,28.88,NE,45,0.0,0.0,43,0.00,,,0.00,open2300-1.11,2013-04-29 20:47:00,
2013-04-29 23:52:00,71.4,47.7,28.87,NE,45,0.0,0.0,43,0.00,,,0.00,open2300-1.11,2013-04-29 20:52:00,
2013-04-29 23:57:00,71.4,47.7,28.88,NE,45,0.0,0.0,43,0.00,,,0.00,open2300-1.11,2013-04-29 20:57:00,